[[{"header":{"parameterUnit":"m.s-1","parameterCategory":1,"la1":30.2991,"la2":30.254,"lo1":-89.0895,"lo2":-89.0444,"dy":0.0017,"dx":0.0017,"nx":28,"ny":28,"refTime":"2024-10-22T03:00:00:Z","depth":0,"parameterNumber":2,"parameterNumberName":"U-component_of_WINDS"},"data":[0,0,0,0,0,0,0,0,0,0,0,0,0,0,0,0,0,0,0,0,0,0,0,0,0,0,0,0,0,0,0,0,0,0,0,0,0,0,0,0,0,0,0,0,0,0,0,0,0,0,0,0,0,0,0,0,0,0,-1.8931,-1.8932,0,-1.898,-1.8981,-1.8981,-1.8955,-1.8954,-1.8952,-1.8951,-1.9004,-1.9007,-1.9009,0,0,0,0,0,0,0,0,0,0,0,0,0,-1.8818,-1.882,-1.8931,-1.8932,-1.8932,-1.898,-1.8981,-1.8982,-1.8955,-1.8954,-1.8952,-1.895,-1.9003,-1.9006,-1.9009,0,0,0,0,0,0,0,0,0,0,0,0,0,-1.8867,-1.8821,-1.8931,-1.8925,-1.8925,-1.898,-1.8981,-1.8982,-1.8956,-1.8954,-1.8952,-1.895,-1.9002,-1.9006,-1.901,-1.9075,0,0,-1.9022,-1.9024,0,0,0,0,0,0,0,0,-1.8864,-1.8871,-1.8925,-1.8925,-1.8925,-1.8959,-1.896,-1.9013,-1.8956,-1.8944,-1.8951,-1.8949,-1.8991,-1.8996,-1.9009,-1.9077,-1.9079,-1.9022,-1.9025,-1.9026,-1.9028,0,0,0,0,0,0,0,-1.8861,-1.8869,-1.8951,-1.8926,-1.8926,-1.8921,-1.8926,-1.897,-1.8978,-1.8945,-1.8943,-1.8949,-1.8991,-1.9006,-1.901,-1.908,-1.9022,-1.9026,-1.9028,-1.903,-1.9207,-1.9209,0,0,0,0,0,0,-1.8857,-1.8866,-1.8949,-1.8952,-1.8889,-1.8925,-1.893,-1.8951,-1.8978,-1.898,-1.8951,-1.8948,-1.9,-1.9006,-1.9012,-1.9092,-1.9026,-1.903,-1.9032,-1.9204,-1.9207,-1.921,0,0,0,0,0,0,-1.8855,-1.8865,-1.8947,-1.8909,-1.8919,-1.8929,-1.8952,-1.8953,-1.8968,-1.8982,-1.8984,-1.8964,-1.8998,-1.9007,-1.906,-1.9094,-1.9032,-1.9036,-1.9202,-1.9205,-1.9208,-1.9251,0,0,0,0,0,0,-1.8852,-1.8864,-1.8888,-1.8909,-1.8921,-1.8993,-1.8954,-1.8955,-1.8974,-1.8971,-1.8995,-1.8998,-1.8997,-1.9054,-1.9064,-1.9098,-1.9039,-1.9199,-1.9203,-1.9207,-1.9247,-1.9256,-1.9263,0,0,0,0,0,-1.8848,-1.8898,-1.889,-1.89,-1.8951,-1.8995,-1.9002,-1.9,-1.8977,-1.9002,-1.9012,-1.8997,-1.9088,-1.906,-1.907,-1.9106,-1.9197,-1.9202,-1.9207,-1.9243,-1.9254,-1.9263,0,0,0,0,0,0,-1.8881,-1.8901,-1.8891,-1.895,-1.8971,-1.899,-1.9021,-1.9011,-1.9039,-1.9035,-1.9032,-1.9038,-1.9094,-1.9105,-1.9073,-1.9172,-1.9139,-1.9147,-1.9163,-1.9173,-1.9181,-1.9178,-1.9042,0,0,0,0,0,-1.8895,-1.8928,-1.8944,-1.8994,-1.9005,-1.9012,-1.9031,-1.9028,-1.905,-1.9059,-1.9072,-1.9095,-1.9129,-1.9151,-1.9183,-1.9248,-1.9254,-1.9278,-1.9286,-1.9293,-1.93,-1.9338,-1.935,-1.9227,-1.9227,-1.9227,0,0,-1.8924,-1.8939,-1.896,-1.9001,-1.9017,-1.9053,-1.9019,-1.9058,-1.9085,-1.9065,-1.9116,-1.9127,-1.9152,-1.9212,-1.924,-1.9224,-1.9335,-1.93,-1.9305,-1.9308,-1.9345,-1.9356,-1.9367,-1.923,-1.923,-1.9229,0,0,-1.8997,-1.901,-1.9055,-1.9072,-1.9096,-1.91,-1.9111,-1.9133,-1.9139,-1.919,-1.9177,-1.9209,-1.9267,-1.9287,-1.9304,-1.9386,-1.9374,-1.9396,-1.944,-1.9477,-1.9487,-1.9495,-1.9527,-1.9538,-1.9403,-1.9403,-1.9403,0,-1.903,-1.9083,-1.9079,-1.912,-1.9139,-1.9122,-1.9168,-1.9185,-1.9219,-1.9233,-1.9214,-1.9288,-1.9304,-1.937,-1.939,-1.9403,-1.9418,-1.9394,-1.9485,-1.9494,-1.9502,-1.9532,-1.9544,-1.9406,-1.9406,-1.9405,-1.9405,0,-1.9125,-1.9162,-1.9195,-1.9228,-1.9251,-1.9294,-1.9298,-1.9322,-1.9317,-1.9324,-1.9378,-1.9396,-1.9433,-1.9448,-1.9443,-1.9514,-1.9504,-1.9485,-1.9452,-1.9516,-1.9545,-1.9556,-1.941,-1.9409,-1.9408,-1.9407,0,0,-1.9219,-1.9251,-1.9263,-1.928,-1.9306,-1.9335,-1.9378,-1.9414,-1.9435,-1.946,-1.9498,-1.9548,-1.9531,-1.9551,-1.9549,-1.9581,-1.9648,-1.9559,-1.956,-1.9577,-1.973,-1.9745,-1.9759,-1.964,-1.9642,-1.9644,-1.9729,0,-1.9295,-1.937,-1.9369,-1.9439,-1.9475,-1.946,-1.9498,-1.9519,-1.9527,-1.9559,-1.9568,-1.9604,-1.9579,-1.9591,-1.9622,-1.9633,-1.9679,-1.9627,-1.9677,-1.9679,-1.9674,-1.9773,-1.9789,-1.9868,-1.974,-1.9741,-1.9743,0,-1.9394,-1.9422,-1.9496,-1.952,-1.9535,-1.9569,-1.9602,-1.9632,-1.9657,-1.9661,-1.9684,-1.9677,-1.9723,-1.9688,-1.9752,-1.9717,-1.9737,-1.9746,-1.9749,-1.9756,-1.9716,-1.9785,-1.9893,-1.9906,-1.976,-1.9758,-1.9757,0,-1.9459,-1.9515,-1.9567,-1.9581,-1.9609,-1.9634,-1.9647,-1.9669,-1.9692,-1.9721,-1.9736,-1.977,-1.979,-1.9817,-1.9821,-1.9794,-1.9887,-1.9851,-1.9893,-1.9894,-1.9915,-1.9914,-2.0031,-1.9924,-1.9924,-1.9924,-1.9924,0,-1.9545,-1.9592,-1.9597,-1.963,-1.9682,-1.968,-1.9733,-1.9743,-1.9764,-1.98,-1.9788,-1.9822,-1.9823,-1.9858,-1.9861,-1.9916,-1.9924,-1.993,-1.9931,-1.9932,-1.9932,-1.9947,-1.9943,-1.9927,-1.9927,-1.9926,-1.9925,0,-1.9627,-1.9632,-1.9689,-1.9711,-1.9717,-1.9755,-1.9775,-1.9807,-1.9814,-1.9859,-1.987,-1.9881,-1.9922,-1.9928,-1.9975,-1.9978,-2.0044,-2.0038,-2.0036,-2.0036,-2.0079,-2.0076,-2.0212,-2.0231,-2.0109,-2.011,-2.0111,0,-1.9683,-1.9718,-1.9745,-1.9768,-1.9782,-1.9818,-1.9841,-1.9841,-1.9866,-1.9898,-1.9926,-1.9966,-1.9998,-2.0065,-2.0078,-2.0115,-2.0111,-2.0156,-2.0117,-2.0118,-2.0115,-2.0114,-2.0119,-2.0165,-2.0166,-2.0167,-2.0168,0,-1.9782,-1.9783,-1.9816,-1.9851,-1.9878,-1.9905,-1.9931,-1.9951,-1.9954,-1.9983,-2.0024,-2.0049,-2.0099,-2.0139,-2.0176,-2.0191,-2.0182,-2.018,-2.0192,-2.0196,-2.0194,-2.0198,-2.0059,-2.0177,-2.0176,-2.0176,-2.0175,-2.0175,-1.9854,-1.9886,-1.9911,-1.9948,-1.9968,-1.9992,-2.0024,-2.0035,-2.007,-2.011,-2.0108,-2.0155,-2.018,-2.0229,-2.0247,-2.0285,-2.027,-2.0287,-2.0292,-2.0297,-2.0302,-2.0186,-2.0291,-2.0291,-2.029,-2.029,-2.029,0,-1.9955,-1.997,-2.0005,-2.0042,-2.0072,-2.0059,-2.0087,-2.0114,-2.0155,-2.0179,-2.0211,-2.0261,-2.03,-2.0317,-2.0357,-2.0384,-2.0381,-2.0395,-2.0394,-2.0398,-2.0311,-2.0298,-2.0397,-2.0397,-2.0397,-2.0397,-2.0397,-2.0397,-2.0012,-2.0066,-2.007,-2.0135,-2.015,-2.0195,-2.0213,-2.0236,-2.0256,-2.0312,-2.0345,-2.0355,-2.0377,-2.0419,-2.0455,-2.0459,-2.0476,-2.0492,-2.0495,-2.0414,-2.0404,-2.0393,-2.0381,-2.0495,-2.0495,-2.0578,-2.0579,-2.058]},{"header":{"parameterUnit":"m.s-1","parameterCategory":1,"la1":30.2991,"la2":30.254,"lo1":-89.0895,"lo2":-89.0444,"dy":0.0017,"dx":0.0017,"nx":28,"ny":28,"refTime":"2024-10-22T03:00:00:Z","depth":0,"parameterNumber":3,"parameterNumberName":"V-component_of_WINDS"},"data":[0,0,0,0,0,0,0,0,0,0,0,0,0,0,0,0,0,0,0,0,0,0,0,0,0,0,0,0,0,0,0,0,0,0,0,0,0,0,0,0,0,0,0,0,0,0,0,0,0,0,0,0,0,0,0,0,0,0,-1.5769,-1.5769,0,-1.5776,-1.5776,-1.5776,-1.5752,-1.5751,-1.5751,-1.575,-1.5757,-1.5758,-1.5758,0,0,0,0,0,0,0,0,0,0,0,0,0,-1.5733,-1.5734,-1.5769,-1.5769,-1.5769,-1.5776,-1.5776,-1.5776,-1.5752,-1.5751,-1.5751,-1.575,-1.5756,-1.5757,-1.5758,0,0,0,0,0,0,0,0,0,0,0,0,0,-1.5745,-1.5734,-1.5769,-1.5758,-1.5757,-1.5776,-1.5776,-1.5776,-1.5753,-1.5751,-1.575,-1.5749,-1.5756,-1.5757,-1.5759,-1.5788,0,0,-1.5763,-1.5763,0,0,0,0,0,0,0,0,-1.5745,-1.5747,-1.5759,-1.5759,-1.5758,-1.5762,-1.5766,-1.578,-1.5753,-1.5754,-1.575,-1.5749,-1.5759,-1.576,-1.5764,-1.5789,-1.5789,-1.5763,-1.5763,-1.5764,-1.5764,0,0,0,0,0,0,0,-1.5744,-1.5746,-1.5772,-1.576,-1.5759,-1.5752,-1.5753,-1.5769,-1.5763,-1.5754,-1.5752,-1.5754,-1.5759,-1.5763,-1.5764,-1.5789,-1.5763,-1.5764,-1.5765,-1.5765,-1.5838,-1.5839,0,0,0,0,0,0,-1.5744,-1.5746,-1.5772,-1.5772,-1.5748,-1.5754,-1.5754,-1.5762,-1.5763,-1.5762,-1.5754,-1.5752,-1.5761,-1.5763,-1.5764,-1.5799,-1.5764,-1.5765,-1.5766,-1.5837,-1.5838,-1.584,0,0,0,0,0,0,-1.5744,-1.5747,-1.5771,-1.5758,-1.5761,-1.5756,-1.5764,-1.5763,-1.5767,-1.5763,-1.5762,-1.576,-1.576,-1.5762,-1.5782,-1.5799,-1.5766,-1.5767,-1.5836,-1.5837,-1.5839,-1.5869,0,0,0,0,0,0,-1.5743,-1.5747,-1.5758,-1.5759,-1.5762,-1.579,-1.5765,-1.5764,-1.5769,-1.5767,-1.5768,-1.5767,-1.576,-1.5781,-1.5784,-1.58,-1.5768,-1.5834,-1.5836,-1.5838,-1.5866,-1.5871,-1.5876,0,0,0,0,0,-1.5742,-1.5767,-1.5759,-1.5762,-1.5776,-1.5791,-1.5793,-1.5784,-1.5771,-1.5782,-1.5779,-1.5767,-1.5797,-1.5783,-1.5786,-1.5803,-1.5833,-1.5836,-1.5838,-1.5864,-1.587,-1.5876,0,0,0,0,0,0,-1.5768,-1.5766,-1.5758,-1.5784,-1.5788,-1.5787,-1.5801,-1.5791,-1.5798,-1.5796,-1.5784,-1.5785,-1.5807,-1.5807,-1.5792,-1.5832,-1.5812,-1.5816,-1.5831,-1.5837,-1.5841,-1.5841,-1.5769,0,0,0,0,0,-1.5777,-1.579,-1.5787,-1.581,-1.5812,-1.5806,-1.5813,-1.5806,-1.5809,-1.5811,-1.5809,-1.5813,-1.5823,-1.583,-1.5839,-1.5866,-1.5866,-1.5879,-1.5884,-1.5888,-1.5891,-1.5905,-1.5911,-1.5848,-1.5848,-1.5848,0,0,-1.5795,-1.5796,-1.5805,-1.5815,-1.5818,-1.583,-1.5808,-1.5823,-1.5832,-1.5813,-1.5832,-1.5831,-1.5834,-1.5858,-1.5868,-1.5858,-1.5908,-1.5891,-1.5894,-1.5895,-1.5908,-1.5914,-1.592,-1.585,-1.585,-1.5849,0,0,-1.5836,-1.5837,-1.5857,-1.5859,-1.5863,-1.5859,-1.5863,-1.5864,-1.5863,-1.5881,-1.5867,-1.5878,-1.5895,-1.5898,-1.5902,-1.5943,-1.5931,-1.5946,-1.597,-1.5984,-1.5989,-1.5994,-1.6008,-1.6013,-1.5949,-1.5949,-1.5949,0,-1.5858,-1.5877,-1.5868,-1.5883,-1.5888,-1.5872,-1.5891,-1.5894,-1.59,-1.5904,-1.5892,-1.5914,-1.5915,-1.5939,-1.5949,-1.5953,-1.5957,-1.5946,-1.5989,-1.5994,-1.5997,-1.6011,-1.6017,-1.5951,-1.5951,-1.595,-1.595,0,-1.5905,-1.5918,-1.5933,-1.594,-1.5946,-1.5964,-1.5956,-1.5964,-1.5957,-1.5953,-1.5973,-1.5973,-1.5982,-1.5987,-1.598,-1.601,-1.6004,-1.5991,-1.5972,-1.6005,-1.6018,-1.6023,-1.5953,-1.5953,-1.5952,-1.5952,0,0,-1.5962,-1.5963,-1.5969,-1.5971,-1.5974,-1.5984,-1.6,-1.6009,-1.6016,-1.602,-1.6034,-1.6049,-1.6037,-1.6041,-1.6034,-1.6046,-1.6078,-1.6032,-1.6032,-1.6041,-1.6112,-1.6121,-1.6127,-1.6071,-1.6072,-1.6072,-1.6111,0,-1.6002,-1.603,-1.6022,-1.605,-1.6062,-1.6046,-1.606,-1.6063,-1.606,-1.607,-1.6066,-1.6077,-1.6061,-1.6064,-1.6075,-1.6072,-1.6092,-1.6069,-1.6083,-1.6083,-1.6083,-1.6134,-1.6144,-1.6181,-1.6116,-1.6117,-1.6118,0,-1.6052,-1.6059,-1.6088,-1.6088,-1.6093,-1.6106,-1.6113,-1.6122,-1.6125,-1.6122,-1.6127,-1.6117,-1.6132,-1.6113,-1.6134,-1.6118,-1.6123,-1.6122,-1.6123,-1.6125,-1.6103,-1.6137,-1.6193,-1.6198,-1.6125,-1.6125,-1.6124,0,-1.6091,-1.6107,-1.6127,-1.613,-1.613,-1.614,-1.614,-1.6142,-1.6148,-1.6154,-1.6157,-1.6165,-1.6169,-1.6175,-1.6168,-1.6154,-1.619,-1.6169,-1.6188,-1.6188,-1.6196,-1.6196,-1.6254,-1.6199,-1.6199,-1.6199,-1.6199,0,-1.6136,-1.6155,-1.6145,-1.6157,-1.6177,-1.6167,-1.6187,-1.6186,-1.6187,-1.6199,-1.6185,-1.6196,-1.6185,-1.6195,-1.6189,-1.6207,-1.6209,-1.6207,-1.6205,-1.6208,-1.6209,-1.6212,-1.6209,-1.6201,-1.62,-1.62,-1.62,0,-1.6183,-1.6177,-1.6198,-1.6197,-1.6197,-1.6212,-1.621,-1.6221,-1.6217,-1.6232,-1.6235,-1.6229,-1.6239,-1.6232,-1.6243,-1.6239,-1.6263,-1.6258,-1.6262,-1.6261,-1.628,-1.6278,-1.6342,-1.635,-1.629,-1.6291,-1.6291,0,-1.6213,-1.6227,-1.6227,-1.6234,-1.6235,-1.6246,-1.6252,-1.6242,-1.6249,-1.6252,-1.6263,-1.6273,-1.628,-1.6298,-1.6294,-1.6302,-1.6297,-1.6318,-1.6298,-1.6301,-1.6297,-1.6296,-1.6298,-1.6323,-1.6323,-1.6324,-1.6325,0,-1.6266,-1.6262,-1.6271,-1.6278,-1.6286,-1.6291,-1.6296,-1.6302,-1.6292,-1.63,-1.6311,-1.6316,-1.6327,-1.6337,-1.6343,-1.6344,-1.6333,-1.6331,-1.6336,-1.6339,-1.6341,-1.634,-1.6274,-1.633,-1.6329,-1.6329,-1.6328,-1.6328,-1.6305,-1.6316,-1.6318,-1.6328,-1.6331,-1.6335,-1.6345,-1.6343,-1.6352,-1.636,-1.6353,-1.6366,-1.6368,-1.6376,-1.6377,-1.6387,-1.6378,-1.6385,-1.6387,-1.6389,-1.6391,-1.634,-1.6388,-1.6388,-1.6388,-1.6388,-1.6388,0,-1.6357,-1.6357,-1.6367,-1.6373,-1.6381,-1.637,-1.6374,-1.6381,-1.6393,-1.6396,-1.6403,-1.6415,-1.6424,-1.6421,-1.6429,-1.6438,-1.6433,-1.644,-1.644,-1.644,-1.6399,-1.6394,-1.6444,-1.6444,-1.6444,-1.6444,-1.6444,-1.6444,-1.6385,-1.6404,-1.64,-1.642,-1.642,-1.6433,-1.6436,-1.644,-1.6442,-1.6456,-1.6464,-1.6462,-1.6462,-1.647,-1.6478,-1.6476,-1.648,-1.6489,-1.6486,-1.6448,-1.6443,-1.6437,-1.6433,-1.649,-1.649,-1.6527,-1.6527,-1.6527]}]]